Content
SEND FEEDBACK

Daily
Averages
Monthly
Summary
United States of America

STATEN ISLAND, NEW YORK


Home > North America > United States > New York
Elevation: 152 feet     Latitude: 40 35N     Longitude: 074 09W

WEATHER
 
SELECT A DAY
Number of Records: 189,762;   Date Range: 1/1/95 - 8/28/14
 
SHARE

PRINT THIS DATA

[ ← Previous Day ]
WEATHER ALMANAC - JULY 29, 2013
[ Next Day → ]
[ °C ]   °F
Weather ElementAverageHighLow
Temperature77.8 °F86 °F (1:51 pm)70 °F (5:51 am)
Dewpoint60.7 °F69.1 °F (3:51 am)48 °F (5:51 pm)
Humidity58.9 %93 % (3:51 am)28 % (5:51 pm)
Barometer30.02 in30.10 in (10:51 pm)29.96 in (1:51 am)
Wind Speed7.7 mph17.3 mph (4:51 pm)
Wind Gust20.7 mph (3:51 pm)
Weather ElementAverage
Visibility10 mi
Wind DirectionSW (229.1 °)

Weather ElementTotal
Precipitation---
Cooling Degree Days13 (Base 65)
Growing Degree Days28 (Base 50)
Averaged from 23 records on July 29, 2013
WEATHER CONDITIONS BREAKOUT
WIND DIRECTION BREAKOUT
WEATHER BY HOUR - JULY 29, 2013
[ °C ]   °F
Local TimeTemperatureDewpointHumidityBarometerVisibilityWind DirectionWind SpeedGust SpeedPrecipitationEventsConditions
1:51 AM71.1 °F66.9 °F87 %29.96 in10.0 miSE (130°)3.5 mph0.00 inRainLight Rain
2:51 AM71.1 °F68.0 °F90 %29.97 in10.0 miCalm0.00 inOvercast
3:51 AM71.1 °F69.1 °F93 %29.98 in10.0 miWest (280°)4.6 mph0.00 inOvercast
4:51 AM71.1 °F68.0 °F90 %29.96 in10.0 miSSW (210°)3.5 mphScattered Clouds
5:51 AM70.0 °F66.9 °F90 %29.97 in10.0 miWest (260°)4.6 mphMostly Cloudy
6:51 AM70.0 °F68.0 °F93 %29.99 in10.0 miWest (270°)5.8 mphScattered Clouds
7:51 AM73.0 °F66.9 °F81 %30.01 in10.0 miNW (320°)5.8 mphScattered Clouds
8:51 AM77.0 °F62.1 °F60 %30.02 in10.0 miNorth (350°)5.8 mphScattered Clouds
9:51 AM79.0 °F63.0 °F58 %30.03 in10.0 miWNW (300°)5.8 mphScattered Clouds
10:51 AM81.0 °F63.0 °F54 %30.03 in10.0 miVariable4.6 mphScattered Clouds
11:51 AM82.0 °F64.0 °F54 %30.03 in10.0 miVariable3.5 mphScattered Clouds
12:51 PM84.0 °F64.0 °F51 %30.01 in10.0 miSW (220°)6.9 mphScattered Clouds
1:51 PM86.0 °F62.1 °F44 %30.01 in10.0 miSW (220°)8.1 mph17.3 mphScattered Clouds
2:51 PM86.0 °F62.1 °F44 %30.01 in10.0 miWest (280°)9.2 mphScattered Clouds
3:51 PM86.0 °F60.1 °F41 %30.01 in10.0 miWSW (250°)13.8 mph20.7 mphScattered Clouds
4:51 PM86.0 °F57.0 °F37 %30.01 in10.0 miWest (260°)17.3 mphScattered Clouds
5:51 PM84.0 °F48.0 °F28 %30.02 in10.0 miWest (280°)12.7 mphScattered Clouds
6:51 PM82.0 °F51.1 °F34 %30.03 in10.0 miWest (270°)13.8 mphScattered Clouds
7:51 PM80.1 °F52.0 °F38 %30.05 in10.0 miWest (260°)12.7 mphScattered Clouds
8:51 PM78.1 °F53.1 °F42 %30.07 in10.0 miWest (260°)8.1 mphPartly Cloudy
9:51 PM75.9 °F54.0 °F46 %30.09 in10.0 miWest (280°)9.2 mphClear
10:51 PM73.9 °F53.1 °F48 %30.10 in10.0 miWNW (290°)9.2 mphClear
11:51 PM72.0 °F53.1 °F51 %30.10 in10.0 miWest (280°)9.2 mphClear
Hourly data recorded from KEWR, located miles away from Staten Island, New York







STORIES FROM OUR PARTNERS